Flag for Brazil Weather past 2 weeks in Volta Redonda, Rio de Janeiro, Brazil

Now
81 °F

Broken clouds.


Feels Like: 85 °F
Forecast: 67 / 82 °F
Wind: 6 mph from Northeast

Location: Galeao

Current Time: Mar 30, 2015 at 11:39:14 AM

Latest Report: Mar 30, 2015 at 11:00 AM


Visibility: 5 mi

Pressure: 29.92 "Hg

Humidity: 79%

Dew point: 73 °F

Location of Volta RedondaLocation

Historic Weather in Volta Redonda — Graph

°F

Volta Redonda temperature yesterday

Maximum temperature yesterday: 86 °F (at 12:00 PM)
Minimum temperature yesterday: 73 °F (at 12:00 AM)
Average temperature yesterday: 77 °F

Past Weeks' High & Low Weather Summary

 TemperatureHumidityPressure
High91 °F (Mar 16, 12:00 PM)100% (Mar 22, 8:00 PM)30.12 "Hg (Mar 22, 8:00 PM)
Low34 °F (Mar 22, 8:00 PM)52% (Mar 22, 12:00 PM)29.74 "Hg (Mar 22, 3:00 AM)
Average78 °F81%29.94 "Hg
* Reported Mar 15 10:00 AM — Mar 30 10:00 AM, Volta Redonda, Weather by CustomWeather, © 2015

Note: Actual official high and low records may vary slightly from our data, if they occured in-between our weather recording intervals... More about our weather records

Advertising

Volta Redonda weather history for previous 24 hours

 ConditionsComfort  
Time TempWeatherWind HumidityBarometerVisibility
10:00 AM
Mon, Mar 30
81 °FBroken clouds.No wind79%29.92 "Hg6 mi
9:00 AM79 °FBroken clouds.No wind79%29.92 "Hg6 mi
8:00 AM77 °FBroken clouds.No wind89%29.92 "Hg6 mi
7:00 AM75 °FBroken clouds.No wind94%29.89 "Hg5 mi
6:00 AM75 °FPartly sunny.5 mph89%29.89 "Hg4 mi
5:00 AM75 °FPartly sunny.3 mph89%29.89 "Hg5 mi
4:00 AM75 °FPartly cloudy.No wind89%29.89 "Hg6 mi
3:00 AM75 °FLight rain. Passing clouds.5 mph89%29.92 "Hg6 mi
2:00 AM75 °FPassing clouds.6 mph89%29.92 "HgN/A
1:00 AM75 °FPassing clouds.2 mph89%29.95 "HgN/A
12:00 AM75 °FPassing clouds.3 mph89%29.95 "HgN/A
11:00 PM
Sun, Mar 29
73 °FLight rain. Partly cloudy.8 mph94%29.98 "HgN/A
10:00 PM73 °FLight rain. Mostly cloudy.10 mph94%29.98 "HgN/A
9:00 PM73 °FThunderstorms. Fog.9 mph94%29.98 "Hg2 mi
8:00 PM73 °FThunderstorms. Fog.17 mph94%29.95 "Hg2 mi
7:00 PM77 °FMostly cloudy.15 mph83%29.92 "HgN/A
6:00 PM77 °FMostly cloudy.15 mph83%29.92 "HgN/A
5:00 PM79 °FMostly cloudy.15 mph79%29.92 "Hg5 mi
4:00 PM79 °FMostly cloudy.22 mph84%29.89 "Hg5 mi
3:00 PM81 °FPartly sunny.16 mph74%29.89 "Hg5 mi
2:00 PM82 °FBroken clouds.18 mph74%29.89 "Hg5 mi
1:00 PM84 °FPassing clouds.14 mph70%29.92 "Hg5 mi
12:00 PM86 °FPassing clouds.7 mph62%29.95 "Hg5 mi
11:00 AM84 °FPassing clouds.5 mph70%29.95 "Hg4 mi
Weather by CustomWeather, © 2015

See weather overviewHow to use our weather pages